Location: Coupvray
(48.8929°N, 2.7967°E)
Time: 20:17:47
(UTC+00:00)

USA 215 - Pass Details

Date: 14 July 2020
Orbit: 1102 x 1106 km, 123.0° (Epoch: 08 August)

Event Time Altitude Azimuth Distance (km) Brightness Sun altitude
Rises 01:34:48 0° 68° (ENE) 3,926 6.9 -16.0°
Reaches altitude 10° 01:37:23 10° 62° (ENE) 2,967 6.3 -15.9°
Maximum altitude 01:43:32 46° 353° (N) 1,458 4.3 -15.4°
Drops below altitude 10° 01:49:41 10° 283° (WNW) 2,963 5.4 -15.0°
Sets 01:52:16 0° 277° (W) 3,920 5.9 -14.8°
